Weather History for Montrose, CO

Change the Weather History Date:

Tuesday, July 15, 2014

  Actual Average Record
Temperature  
Mean Temperature 79 °F 74 °F  
Max Temperature 94 °F 90 °F 98 °F (2005)
Min Temperature 63 °F 58 °F 52 °F (1997)
Degree Days  
Heating Degree Days 0 0  
Month to date heating degree days 0 0  
Since 1 June heating degree days 18 39  
Since 1 July heating degree days 0 0  
Cooling Degree Days 14 9  
Month to date cooling degree days 181 127  
Year to date cooling degree days 362 279  
Since 1 June cooling degree days 321 262  
Growing Degree Days 28 (Base 50)    
Moisture  
Dew Point 45 °F    
Average Humidity 36    
Maximum Humidity 52    
Minimum Humidity 20    
Precipitation  
Precipitation 0.00 in 0.02 in 0.18 in (2001)
Month to date precipitation 0.08 0.37  
Year to date precipitation 3.36 5.44  
Sea Level Pressure  
Sea Level Pressure 29.92 in    
Wind  
Wind Speed 6 mph (SE)    
Max Wind Speed 20 mph    
Max Gust Speed 24 mph    
Visibility 10 miles    
Events Thunderstorm    
T = Trace of Precipitation, MM = Missing Value Source: NWS Daily Summary

Daily Weather History Graph

Daily Weather History Graph

Search for Another Location

Airport:

Trip Planner

Search our weather history database for the weather conditions in past years. The results will help you decide how hot, cold, wet, or windy it might be!

Date:

Astronomy

Jul. 15, 2014 Rise Set
Actual Time 5:59 AM MDT 8:35 PM MDT
Civil Twilight 5:28 AM MDT 9:05 PM MDT
Nautical Twilight 4:50 AM MDT 9:44 PM MDT
Astronomical Twilight 4:07 AM MDT 10:27 PM MDT
Moon 10:48 PM MDT (7/15) 9:54 AM MDT (7/15)
Length of Visible Light 15h 37m
Length of Day
14h 35m
Waning Gibbous, 85% of the Moon is Illuminated
Jul 15
Waning Gibbous
Jul 18
Last Quarter
Jul 26
New
Aug 3
First Quarter
Aug 10
Full

Hourly Weather History & Observations

Time (MDT) Temp. Dew Point Humidity Pressure Visibility Wind Dir Wind Speed Gust Speed Precip Events Conditions
12:53 AM 69.1 °F 46.0 °F 44% 29.93 in 10.0 mi SSE 5.8 mph - N/A   Clear
1:53 AM 68.0 °F 46.9 °F 47% 29.93 in 10.0 mi Calm Calm - N/A   Partly Cloudy
2:53 AM 66.9 °F 46.0 °F 47% 29.94 in 10.0 mi ESE 5.8 mph - N/A   Partly Cloudy
3:53 AM 64.9 °F 46.0 °F 50% 29.95 in 10.0 mi ESE 8.1 mph - N/A   Clear
4:53 AM 66.0 °F 46.0 °F 48% 29.95 in 10.0 mi SSE 11.5 mph - N/A   Clear
5:53 AM 66.0 °F 45.0 °F 47% 29.94 in 10.0 mi SE 9.2 mph - N/A   Clear
6:53 AM 64.9 °F 46.0 °F 50% 29.96 in 10.0 mi SSE 5.8 mph - N/A   Clear
7:53 AM 70.0 °F 48.9 °F 47% 29.97 in 10.0 mi WSW 3.5 mph - N/A   Clear
8:53 AM 75.0 °F 46.9 °F 37% 29.98 in 10.0 mi Calm Calm - N/A   Clear
9:53 AM 80.1 °F 43.0 °F 27% 29.98 in 10.0 mi WNW 4.6 mph - N/A   Clear
10:53 AM 82.9 °F 44.1 °F 25% 29.97 in 10.0 mi Variable 5.8 mph - N/A   Clear
11:53 AM 88.0 °F 45.0 °F 22% 29.94 in 10.0 mi North 8.1 mph - N/A   Clear
12:53 PM 88.0 °F 45.0 °F 22% 29.93 in 10.0 mi Variable 3.5 mph - N/A   Clear
1:53 PM 90.0 °F 45.0 °F 21% 29.89 in 10.0 mi Calm Calm - N/A   Clear
2:53 PM 91.0 °F 44.1 °F 20% 29.85 in 10.0 mi Variable 3.5 mph - N/A   Clear
3:53 PM 89.1 °F 44.1 °F 21% 29.82 in 10.0 mi Calm Calm - N/A   Clear
4:53 PM 88.0 °F 46.9 °F 24% 29.81 in 10.0 mi NW 8.1 mph - N/A   Clear
5:53 PM 84.0 °F 48.9 °F 29% 29.83 in 10.0 mi NW 15.0 mph - N/A   Clear
6:53 PM 81.0 °F 45.0 °F 28% 29.86 in 10.0 mi North 5.8 mph - N/A   Mostly Cloudy
7:31 PM 81.0 °F 41.0 °F 24% 30.14 in 10.0 mi Variable 3.5 mph - N/A Thunderstorm Mostly Cloudy
7:46 PM 79.0 °F 41.0 °F 26% 30.11 in 10.0 mi WSW 12.7 mph - N/A   Mostly Cloudy
7:53 PM 80.1 °F 39.9 °F 24% 29.85 in 10.0 mi SW 10.4 mph 19.6 mph N/A   Scattered Clouds
8:53 PM 75.0 °F 45.0 °F 34% 29.88 in 10.0 mi ESE 11.5 mph - N/A   Clear
9:53 PM 75.0 °F 44.1 °F 33% 29.86 in 10.0 mi East 9.2 mph - N/A   Clear
10:53 PM 73.9 °F 44.1 °F 34% 29.88 in 10.0 mi Calm Calm - N/A   Clear
11:53 PM 71.1 °F 45.0 °F 39% 29.86 in 10.0 mi ENE 3.5 mph - N/A   Clear